This is the latest recevied weather packets stored in our database for station/object N4WFF. If no packets are shown the sender has not sent any weather packets the latest 1 day(s).
| Time | Temp. | Humidity | Pressure | Rain* | Wind** | Luminosity | Snow |
|---|---|---|---|---|---|---|---|
| 1778041855 | 18.89° C | 88% | 1014.7 hPa | 0 mm | 0 m/s | 0 W/m² | - |
| 1778041555 | 18.89° C | 88% | 1014.8 hPa | 0 mm | 0 m/s | 0 W/m² | - |
| 1778041256 | 18.89° C | 88% | 1014.9 hPa | 0 mm | 0 m/s | 0 W/m² | - |
| 1778040955 | 19.44° C | 88% | 1014.8 hPa | 0 mm | 0.45 m/s, 212° | 0 W/m² | - |
| 1778040655 | 19.44° C | 88% | 1014.8 hPa | 0 mm | 0 m/s | 0 W/m² | - |
| 1778040355 | 19.44° C | 87% | 1014.9 hPa | 0 mm | 0.45 m/s, 181° | 0 W/m² | - |
| 1778040055 | 19.44° C | 87% | 1015.1 hPa | 0 mm | 0.45 m/s, 202° | 0 W/m² | - |
| 1778039756 | 19.44° C | 87% | 1015.2 hPa | 0 mm | 0.89 m/s, 197° | 0 W/m² | - |
| 1778039456 | 19.44° C | 87% | 1015.3 hPa | 0 mm | 0.89 m/s, 212° | 0 W/m² | - |
| 1778039155 | 19.44° C | 87% | 1015.4 hPa | 0 mm | 0.89 m/s, 207° | 0 W/m² | - |
| 1778038855 | 20° C | 86% | 1015.3 hPa | 0 mm | 0.89 m/s, 212° | 0 W/m² | - |
| 1778038556 | 20° C | 86% | 1015.2 hPa | 0 mm | 0.89 m/s, 209° | 0 W/m² | - |
| 1778038256 | 20° C | 86% | 1015.1 hPa | 0 mm | 0.89 m/s, 195° | 0 W/m² | - |
| 1778037956 | 20° C | 85% | 1015.1 hPa | 0 mm | 0.89 m/s, 207° | 0 W/m² | - |
| 1778037656 | 20° C | 85% | 1015.2 hPa | 0 mm | 1.34 m/s, 198° | 0 W/m² | - |
| 1778037356 | 20° C | 85% | 1015.1 hPa | 0 mm | 1.34 m/s, 204° | 0 W/m² | - |
| 1778037056 | 20.56° C | 85% | 1015 hPa | 0 mm | 0.89 m/s, 210° | 0 W/m² | - |
| 1778036756 | 20.56° C | 84% | 1015 hPa | 0 mm | 1.34 m/s, 200° | 0 W/m² | - |
| 1778036456 | 20.56° C | 84% | 1015 hPa | 0 mm | 0.89 m/s, 206° | 0 W/m² | - |
| 1778036155 | 20.56° C | 84% | 1014.9 hPa | 0 mm | 1.34 m/s, 211° | 0 W/m² | - |
| 1778035856 | 20.56° C | 83% | 1014.7 hPa | 0 mm | 1.79 m/s, 204° | 0 W/m² | - |
| 1778035555 | 20.56° C | 83% | 1014.7 hPa | 0 mm | 1.34 m/s, 205° | 0 W/m² | - |
| 1778035256 | 20.56° C | 82% | 1014.8 hPa | 0 mm | 1.79 m/s, 195° | 0 W/m² | - |
| 1778034955 | 20.56° C | 82% | 1014.8 hPa | 0 mm | 0.89 m/s, 207° | 0 W/m² | - |
| 1778034655 | 20.56° C | 82% | 1014.6 hPa | 0 mm | 1.79 m/s, 215° | 0 W/m² | - |
* Rain latest hour (hover to see other rain measurements)
** Current wind speed in m/s (hover to see current wind gust speed)